星链-33911 (STARLINK-33911)

导读

STARLINK-33911是美国SpaceX星链互联网星座中的一颗卫星,于2025年5月2日发射升空。作为星链星座组网的组成部分,它承担着为全球提供低延迟、高速宽带互联网服务的任务,依靠低轨部署优势,可覆盖偏远及网络基础设施薄弱区域,助力星链系统实现全球无缝网络覆盖的建设目标。

基本信息
目录编号:
63777
目录名称:
STARLINK-33911
国际标识:
2025-091C
轨道中心:
EARTH
卫星名称:
星链-33911
卫星全名:
星链-33911 (STARLINK-33911)
卫星状态:
在轨 (已飞行408 天)
发射日期:
2025-05-02 UTC
国别 :
美国 (US)
星等 :
--
轨道信息
数据来源 国际轨道数据
星历时间: 2026-06-13T22:33:36+0800
13小时前
查看轨道信息
半长轴: 6861.208km
偏心率: 0.000167
轨道倾角: 43.000°
近地点辐角 265.420°
升交点赤经 223.688°
平近点角 94.646°
近地点: 481.925km
远地点: 484.217km
周期: 94.267分钟
每日圈数: 15.275728
详细信息
固有亮度:
5
最大亮度:
2.5
卫星平台:
Starlink V1.0
覆盖范围:
全球
运营商:
太空探索技术公司
运营商所在国:
美国
制造商(研发单位):
太空探索技术公司
制造商所在国:
美国
使用方式:
暂无
卫星简介
Starlink 计划是 SpaceX 推出的全球卫星互联网项目,通过发射低轨道卫星,为全球尤其是偏远地区提供高速、低延迟的互联网服务。自 2019 年起,Starlink 已部署数千颗卫星,旨在缩小全球数字鸿沟,推动互联网普及。该项目还为军事、航空等行业提供通信支持,带来广泛经济效益。
2D轨道图
3D轨道图
轨道高度分析图
轨道倾角分析图
轨道综合分析图
查看轨道综合分析图